Regional Weather Roundup
Issued by NWS

Home | Current Version | Previous Version | Text Only | Print | Product List | Glossary On
Versions: 1 2 3 4 5 6 7 8 9 10 11 12 13 14 15 16 17 18 19 20 21 22 23 24 25 26 27 28 29 30 31 32 33 34 35 36 37 38 39 40 41 42 43 44 45 46 47 48 49 50
000
ASUS43 KLSX 210007
RWRMO

WEATHER SUMMARY FOR MISSOURI
NATIONAL WEATHER SERVICE SPRINGFIELD MO
700 PM CDT MON OCT 20 2014

NOTE: "FAIR" INDICATES FEW OR NO CLOUDS BELOW 12,000 FEET WITH NO
       SIGNIFICANT WEATHER AND/OR OBSTRUCTIONS TO VISIBILITY.
       CURRENT SKY AND/OR WEATHER CONDITIONS ARE NOT AVAILABLE FOR
       CHILLICOTHE AND FARMINGTON.

MOZ001>031-035>038-043-044-053-054-210100-
...NORTHERN AND WESTERN MISSOURI...

CITY           SKY/WX    TMP DP  RH WIND       PRES   REMARKS
KANSAS CTY INT CLEAR     68  40  35 CALM      30.04R
6HR MIN TEMP:  68; 6HR MAX TEMP:  74;

KANSAS C DTWN  CLEAR     66  45  46 NW3       30.03R
6HR MIN TEMP:  66; 6HR MAX TEMP:  76;

LEE`S SUMMIT   CLEAR     66  42  41 CALM      30.04S
6HR MIN TEMP:  66; 6HR MAX TEMP:  74;

ST JOSEPH      CLEAR     56  42  59 N3        30.04R
6HR MIN TEMP:  56; 6HR MAX TEMP:  76;

CHILLICOTHE      N/A     57  48  72 CALM      30.04R
6HR MIN TEMP:  57; 6HR MAX TEMP:  74;

KIRKSVILLE     CLEAR     58  43  57 NW3       30.03R
6HR MIN TEMP:  58; 6HR MAX TEMP:  70;


$$
MOZ066>068-077>081-088>096-101>105-210100-
...SOUTHWEST MISSOURI...

CITY           SKY/WX    TMP DP  RH WIND       PRES   REMARKS
SPRINGFIELD    CLEAR     63  54  72 CALM      30.03R
6HR MIN TEMP:  63; 6HR MAX TEMP:  74;

JOPLIN         CLEAR     66  55  67 S3        30.03S
6HR MIN TEMP:  66; 6HR MAX TEMP:  76;


$$
MOZ032>034-039>042-045>050-055>058-069>072-210100-
...CENTRAL MISSOURI...

CITY           SKY/WX    TMP DP  RH WIND       PRES   REMARKS
COLUMBIA       CLEAR     64  43  46 NW6       30.02R
6HR MIN TEMP:  63; 6HR MAX TEMP:  74;

JEFFERSON CITY CLEAR     67  42  40 NW5       30.01R
6HR MIN TEMP:  67; 6HR MAX TEMP:  75;

ROLLA          CLEAR     59  46  62 NW3       30.00R
6HR MIN TEMP:  59; 6HR MAX TEMP:  72;

SEDALIA        CLEAR     65  42  43 N3        30.04R
6HR MIN TEMP:  65; 6HR MAX TEMP:  76;

WHITEMAN AFB   CLEAR     63  46  54 CALM      30.02R
OSAGE BEACH    CLEAR     63  46  55 N3        30.01S

$$
MOZ051-052-059>065-210100-
...EAST CENTRAL MISSOURI...

CITY           SKY/WX    TMP DP  RH WIND       PRES   REMARKS
ST LOUIS INTL  CLEAR     65  43  44 NW3       29.99R
6HR MIN TEMP:  63; 6HR MAX TEMP:  74;

SPIRIT OF STL  CLEAR     56  47  71 CALM      29.98R
6HR MIN TEMP:  56; 6HR MAX TEMP:  74;

ST CHARLES     CLEAR     61  45  55 NW7       29.98R
6HR MIN TEMP:  61; 6HR MAX TEMP:  72;


$$
MOZ072>076-082>087-097>100-106>115-210100-
...SOUTH CENTRAL AND SOUTHEAST MISSOURI...

CITY           SKY/WX    TMP DP  RH WIND       PRES   REMARKS
CAPE GIRARDEAU CLEAR     65  56  72 CALM      29.95R
6HR MIN TEMP:  63; 6HR MAX TEMP:  74;

FARMINGTON     CLEAR     64  45  48 NW3       29.99S
6HR MIN TEMP:  64; 6HR MAX TEMP:  75;

WEST PLAINS    CLEAR     62  57  83 W5        30.02R
6HR MIN TEMP:  62; 6HR MAX TEMP:  75;


$$


USA.gov is the U.S. government's official web portal to all federal, state and local government web resources and services.